sat.trackr.live / text

‹ back to catalog

STARLINK-34293

NORAD 64275 · 2025-120V

PAYLOAD ACTIVE UNKNOWN

§ Identity

Operator
Country
US
Launch date
2025-06-04
Launch site
AFWTR
Launch vehicle
Mass (kg)
RCS (m²)

Purposes: comms

External: N2YO · Heavens-Above · Gunter

§ Orbital elements

Epoch: 2026-09-20T09:07:18.862752Z

Period
93.85 min
Inclination
53.1585°
Eccentricity
0.0001429
Mean motion
15.34404036 rev/d
Perigee alt
461.7 km
Apogee alt
463.7 km
Semi-major
6,840.8 km
B*
6.3005e-4
RAAN
290.2776°
Arg perigee
86.9275°
Mean anomaly
273.1891°
Rev number
7,369

§ Raw data

STARLINK-342931 64275U 25120V   26263.38007943  .00020973  00000+0  63005-3 0  99942 64275  53.1585 290.2776 0001429  86.9275 273.1891 15.34404036 73695

JSON: /api/v1/satellites/64275 · /tle

For live sub-satellite position, see the globe view (requires WebGL).

§ Visibility from observer

Set your observer location to see the next 7 days of passes ≥ 10°. The values pass through the URL so the page stays shareable.

No JS? Fill the form by hand. The geolocation button needs JavaScript.